TKJ3167 LTCO-LTFJ

Flight info

Callsign TKJ3167
Flight time 1h 58m
Altitude 36000
Route INBAT UW94 ERZ UL615 TIMOP UT97 ILHAN UT79 NAMAN
Aircraft B738/M-SDE2E3FGHIRWXY/LB1

Departure

Time 2026-04-22 10:53
Airport Ağrı Airport (LTCO)

Arrival

Time 2026-04-22 12:51
Airport Istanbul Sabiha Gökçen International Airport (LTFJ)
Time Latitude Longitude Altitude Speed Heading
2026-04-22 10:26 39.65491 43.02212 5410 ft 0 kts 254°
2026-04-22 10:33 39.65491 43.02213 5410 ft 0 kts 254°
2026-04-22 10:39 39.65492 43.02214 5410 ft 2 kts 254°
2026-04-22 10:40 39.65497 43.02238 5399 ft 3 kts 253°
2026-04-22 10:40 39.65506 43.02260 5394 ft 3 kts 223°
2026-04-22 10:40 39.65522 43.02273 5401 ft 3 kts 191°
2026-04-22 10:40 39.65542 43.02273 5396 ft 3 kts 161°
2026-04-22 10:41 39.65558 43.02266 5401 ft 0 kts 161°
2026-04-22 10:42 39.65558 43.02265 5401 ft 0 kts 161°
2026-04-22 10:46 39.65558 43.02266 5401 ft 1 kts 161°
2026-04-22 10:46 39.65536 43.02276 5394 ft 6 kts 158°
2026-04-22 10:47 39.65521 43.02342 5407 ft 11 kts 76°
2026-04-22 10:47 39.65540 43.02445 5401 ft 9 kts 76°
2026-04-22 10:47 39.65542 43.02459 5404 ft 2 kts 76°
2026-04-22 10:47 39.65547 43.02487 5402 ft 5 kts 77°
2026-04-22 10:48 39.65567 43.02555 5400 ft 11 kts 49°
2026-04-22 10:48 39.65649 43.02554 5395 ft 15 kts 344°
2026-04-22 10:48 39.65761 43.02513 5401 ft 18 kts 344°
2026-04-22 10:48 39.65895 43.02464 5396 ft 22 kts 344°
2026-04-22 10:49 39.66051 43.02407 5401 ft 24 kts 345°
2026-04-22 10:49 39.66223 43.02346 5405 ft 27 kts 344°
2026-04-22 10:49 39.66399 43.02282 5404 ft 25 kts 344°
2026-04-22 10:49 39.66564 43.02223 5402 ft 24 kts 345°
2026-04-22 10:50 39.66719 43.02168 5399 ft 23 kts 344°
2026-04-22 10:50 39.66868 43.02113 5401 ft 22 kts 344°
2026-04-22 10:50 39.67013 43.02059 5403 ft 19 kts 343°
2026-04-22 10:50 39.67089 43.01978 5407 ft 13 kts 321°
2026-04-22 10:51 39.67139 43.02006 5400 ft 8 kts 77°
2026-04-22 10:51 39.67097 43.02032 5406 ft 8 kts 180°
2026-04-22 10:51 39.67054 43.02045 5403 ft 0 kts 163°
2026-04-22 10:52 39.66999 43.02066 5405 ft 32 kts 163°
2026-04-22 10:52 39.66547 43.02229 5401 ft 101 kts 165°
2026-04-22 10:52 39.65669 43.02546 5398 ft 159 kts 165°
2026-04-22 10:52 39.64469 43.02943 5687 ft 183 kts 170°
2026-04-22 10:53 39.63207 43.03260 6481 ft 185 kts 184°
2026-04-22 10:53 39.61909 43.03154 7234 ft 195 kts 186°
2026-04-22 10:53 39.60469 43.03273 7429 ft 217 kts 184°
2026-04-22 10:53 39.58946 43.02886 7692 ft 228 kts 203°
2026-04-22 10:54 39.57483 43.02042 8197 ft 234 kts 207°
2026-04-22 10:54 39.56125 43.00870 8728 ft 236 kts 227°
2026-04-22 10:54 39.55115 42.99154 9290 ft 248 kts 242°
2026-04-22 10:54 39.54493 42.97026 9896 ft 257 kts 258°
2026-04-22 10:55 39.54360 42.94689 10451 ft 270 kts 273°
2026-04-22 10:55 39.54789 42.92198 10643 ft 297 kts 289°
2026-04-22 10:55 39.55874 42.89790 10817 ft 326 kts 310°
2026-04-22 10:55 39.57676 42.87855 11101 ft 347 kts 326°
2026-04-22 10:56 39.59889 42.86503 11722 ft 356 kts 337°
2026-04-22 10:56 39.62285 42.85623 12460 ft 360 kts 347°
2026-04-22 10:56 39.64717 42.84846 13170 ft 360 kts 333°
2026-04-22 10:56 39.66748 42.82998 13889 ft 358 kts 312°
2026-04-22 10:57 39.68245 42.80430 14529 ft 358 kts 297°
2026-04-22 10:57 39.69138 42.77409 15064 ft 361 kts 283°
2026-04-22 10:57 39.69722 42.74224 15685 ft 364 kts 282°
2026-04-22 10:57 39.70294 42.71005 16313 ft 367 kts 282°
2026-04-22 10:58 39.70854 42.67752 16907 ft 371 kts 282°
2026-04-22 10:58 39.71413 42.64468 17524 ft 374 kts 282°
2026-04-22 10:58 39.71984 42.61154 18120 ft 378 kts 282°
2026-04-22 10:58 39.72563 42.57812 18662 ft 381 kts 282°
2026-04-22 10:59 39.73150 42.54445 19192 ft 383 kts 282°
2026-04-22 10:59 39.73742 42.51057 19713 ft 386 kts 282°
2026-04-22 10:59 39.74340 42.47642 20222 ft 389 kts 282°
2026-04-22 10:59 39.74941 42.44200 20729 ft 392 kts 282°
2026-04-22 11:00 39.75544 42.40737 21231 ft 395 kts 282°
2026-04-22 11:00 39.76150 42.37250 21716 ft 398 kts 282°
2026-04-22 11:00 39.76760 42.33727 22177 ft 401 kts 282°
2026-04-22 11:00 39.77374 42.30178 22653 ft 404 kts 282°
2026-04-22 11:01 39.77991 42.26608 23134 ft 406 kts 282°
2026-04-22 11:01 39.78610 42.23012 23589 ft 409 kts 282°
2026-04-22 11:01 39.79241 42.19344 23985 ft 411 kts 282°
2026-04-22 11:01 39.79865 42.15711 24388 ft 413 kts 282°
2026-04-22 11:02 39.80491 42.12054 24784 ft 415 kts 282°
2026-04-22 11:02 39.81117 42.08389 25169 ft 417 kts 282°
2026-04-22 11:02 39.81747 42.04700 25551 ft 419 kts 282°
2026-04-22 11:02 39.82377 42.00994 25916 ft 421 kts 282°
2026-04-22 11:03 39.83010 41.97272 26280 ft 423 kts 282°
2026-04-22 11:03 39.83635 41.93582 26616 ft 424 kts 282°
2026-04-22 11:03 39.84271 41.89826 26964 ft 426 kts 282°
2026-04-22 11:03 39.84908 41.86050 27312 ft 428 kts 282°
2026-04-22 11:04 39.85546 41.82261 27614 ft 430 kts 282°
2026-04-22 11:04 39.86188 41.78447 27908 ft 433 kts 282°
2026-04-22 11:04 39.86831 41.74615 28233 ft 434 kts 282°
2026-04-22 11:04 39.87474 41.70770 28567 ft 435 kts 282°
2026-04-22 11:05 39.88115 41.66922 28979 ft 434 kts 282°
2026-04-22 11:05 39.88751 41.63093 29483 ft 432 kts 282°
2026-04-22 11:05 39.89382 41.59282 29992 ft 429 kts 282°
2026-04-22 11:05 39.90008 41.55492 30375 ft 428 kts 282°
2026-04-22 11:06 39.90642 41.51652 30664 ft 428 kts 282°
2026-04-22 11:06 39.91267 41.47853 30962 ft 429 kts 282°
2026-04-22 11:06 39.91882 41.44113 31283 ft 428 kts 282°
2026-04-22 11:06 39.92511 41.40277 31610 ft 427 kts 282°
2026-04-22 11:07 39.92921 41.37775 31821 ft 427 kts 282°
2026-04-22 11:07 39.93538 41.34000 32117 ft 427 kts 282°
2026-04-22 11:07 39.94155 41.30215 32423 ft 426 kts 282°
2026-04-22 11:07 39.94969 41.25216 32833 ft 425 kts 282°
2026-04-22 11:08 39.95550 41.21443 33138 ft 425 kts 278°
2026-04-22 11:08 39.95768 41.18861 33318 ft 425 kts 272°
2026-04-22 11:08 39.95793 41.15013 33601 ft 425 kts 270°
2026-04-22 11:08 39.95766 41.11167 33888 ft 424 kts 270°
2026-04-22 11:09 39.95735 41.07327 34144 ft 424 kts 270°
2026-04-22 11:09 39.95710 41.03490 34367 ft 423 kts 270°
2026-04-22 11:09 39.95693 40.99657 34586 ft 423 kts 270°
2026-04-22 11:09 39.95682 40.95826 34801 ft 423 kts 270°
2026-04-22 11:10 39.95674 40.91995 35020 ft 422 kts 270°
2026-04-22 11:10 39.95667 40.88170 35265 ft 421 kts 270°
2026-04-22 11:10 39.95658 40.84361 35516 ft 420 kts 270°
2026-04-22 11:10 39.95649 40.80557 35725 ft 420 kts 270°
2026-04-22 11:11 39.95637 40.76753 35905 ft 420 kts 270°
2026-04-22 11:11 39.95625 40.72945 36007 ft 422 kts 270°
2026-04-22 11:11 39.95611 40.69114 36003 ft 423 kts 270°
2026-04-22 11:12 39.95580 40.61474 35999 ft 419 kts 270°
2026-04-22 11:12 39.95547 40.53907 35995 ft 416 kts 270°
2026-04-22 11:13 39.95511 40.46400 35996 ft 413 kts 270°
2026-04-22 11:13 39.95470 40.38934 35992 ft 411 kts 270°
2026-04-22 11:14 39.95424 40.31482 35995 ft 411 kts 270°
2026-04-22 11:14 39.95373 40.24016 35992 ft 413 kts 270°
2026-04-22 11:15 39.95318 40.16514 35993 ft 415 kts 270°
2026-04-22 11:15 39.95257 40.08978 35984 ft 417 kts 270°
2026-04-22 11:16 39.95191 40.01400 35981 ft 419 kts 270°
2026-04-22 11:16 39.95121 39.93795 35996 ft 420 kts 269°
2026-04-22 11:17 39.95053 39.86175 35983 ft 421 kts 270°
2026-04-22 11:17 39.94992 39.78541 35978 ft 421 kts 270°
2026-04-22 11:18 39.94926 39.70922 35978 ft 420 kts 269°
2026-04-22 11:18 39.94856 39.63321 35982 ft 419 kts 270°
2026-04-22 11:19 39.94777 39.55748 35976 ft 417 kts 269°
2026-04-22 11:19 39.94677 39.48203 35978 ft 416 kts 269°
2026-04-22 11:20 39.94570 39.40689 35981 ft 414 kts 269°
2026-04-22 11:20 39.94461 39.33201 35982 ft 413 kts 269°
2026-04-22 11:21 39.94348 39.25734 35979 ft 411 kts 269°
2026-04-22 11:21 39.94232 39.18283 35975 ft 411 kts 269°
2026-04-22 11:22 39.94111 39.10840 35969 ft 411 kts 269°
2026-04-22 11:22 39.93978 39.03392 35974 ft 412 kts 269°
2026-04-22 11:23 39.93839 38.95932 35980 ft 412 kts 269°
2026-04-22 11:23 39.93689 38.88463 35961 ft 413 kts 268°
2026-04-22 11:24 39.93271 38.81000 35974 ft 414 kts 265°
2026-04-22 11:24 39.92734 38.73532 35964 ft 414 kts 265°
2026-04-22 11:25 39.92207 38.66055 35962 ft 415 kts 265°
2026-04-22 11:25 39.91695 38.58568 35958 ft 415 kts 266°
2026-04-22 11:26 39.91186 38.51083 35957 ft 415 kts 265°
2026-04-22 11:26 39.90673 38.43610 35956 ft 414 kts 265°
2026-04-22 11:27 39.90156 38.36153 35952 ft 413 kts 265°
2026-04-22 11:27 39.89636 38.28718 35954 ft 412 kts 265°
2026-04-22 11:28 39.89111 38.21282 35950 ft 412 kts 265°
2026-04-22 11:28 39.88578 38.13811 35949 ft 411 kts 265°
2026-04-22 11:29 39.88046 38.06398 35953 ft 411 kts 265°
2026-04-22 11:29 39.87508 37.98976 35930 ft 412 kts 265°
2026-04-22 11:30 39.86964 37.91562 35933 ft 411 kts 265°
2026-04-22 11:30 39.86420 37.84209 35931 ft 410 kts 265°
2026-04-22 11:31 39.85866 37.76775 35929 ft 410 kts 265°
2026-04-22 11:31 39.85319 37.69484 35913 ft 403 kts 264°
2026-04-22 11:32 39.84775 37.62303 35918 ft 396 kts 264°
2026-04-22 11:32 39.84230 37.55159 35926 ft 397 kts 264°
2026-04-22 11:33 39.83681 37.48010 35919 ft 398 kts 264°
2026-04-22 11:33 39.83123 37.40843 35917 ft 398 kts 264°
2026-04-22 11:34 39.82548 37.33678 35926 ft 399 kts 264°
2026-04-22 11:34 39.81968 37.26501 35947 ft 399 kts 264°
2026-04-22 11:35 39.81384 37.19320 35968 ft 400 kts 263°
2026-04-22 11:35 39.80796 37.12131 35990 ft 400 kts 263°
2026-04-22 11:36 39.80203 37.04936 36008 ft 400 kts 263°
2026-04-22 11:36 39.79607 36.97743 36033 ft 400 kts 263°
2026-04-22 11:37 39.79074 36.90529 36018 ft 402 kts 268°
2026-04-22 11:37 39.79657 36.83318 36032 ft 402 kts 278°
2026-04-22 11:38 39.80677 36.76168 36029 ft 402 kts 278°
2026-04-22 11:38 39.82160 36.65443 35998 ft 401 kts 278°
2026-04-22 11:39 39.83126 36.58307 35966 ft 400 kts 278°
2026-04-22 11:39 39.84084 36.51184 35954 ft 399 kts 278°
2026-04-22 11:40 39.85037 36.44074 35936 ft 398 kts 278°
2026-04-22 11:40 39.85984 36.36980 35939 ft 398 kts 278°
2026-04-22 11:41 39.87019 36.29906 35936 ft 398 kts 279°
2026-04-22 11:41 39.88061 36.22836 35942 ft 397 kts 278°
2026-04-22 11:42 39.88990 36.15743 35939 ft 398 kts 277°
2026-04-22 11:42 39.89919 36.08635 35941 ft 398 kts 278°
2026-04-22 11:43 39.90858 36.01521 35940 ft 399 kts 278°
2026-04-22 11:43 39.91796 35.94398 35942 ft 399 kts 278°
2026-04-22 11:44 39.92722 35.87267 35937 ft 399 kts 277°
2026-04-22 11:44 39.93633 35.80172 35931 ft 400 kts 277°
2026-04-22 11:45 39.94553 35.72972 35916 ft 400 kts 277°
2026-04-22 11:45 39.95465 35.65816 35915 ft 400 kts 277°
2026-04-22 11:46 39.96371 35.58664 35917 ft 400 kts 277°
2026-04-22 11:46 39.97273 35.51508 35908 ft 400 kts 277°
2026-04-22 11:47 39.98172 35.44351 35896 ft 399 kts 277°
2026-04-22 11:47 39.99070 35.37258 35905 ft 399 kts 279°
2026-04-22 11:48 40.00754 35.30349 35905 ft 401 kts 288°
2026-04-22 11:48 40.02704 35.23533 35894 ft 401 kts 288°
2026-04-22 11:49 40.04322 35.17824 35895 ft 400 kts 287°
2026-04-22 11:49 40.06236 35.11006 35895 ft 399 kts 287°
2026-04-22 11:50 40.08135 35.04200 35882 ft 399 kts 287°
2026-04-22 11:50 40.10024 34.97402 35888 ft 398 kts 287°
2026-04-22 11:51 40.11908 34.90602 35879 ft 398 kts 287°
2026-04-22 11:51 40.13785 34.83813 35884 ft 397 kts 287°
2026-04-22 11:52 40.15656 34.77028 35884 ft 397 kts 287°
2026-04-22 11:52 40.17523 34.70237 35870 ft 397 kts 287°
2026-04-22 11:53 40.19385 34.63448 35880 ft 396 kts 287°
2026-04-22 11:53 40.21242 34.56658 35879 ft 397 kts 287°
2026-04-22 11:54 40.23085 34.49900 35870 ft 397 kts 287°
2026-04-22 11:54 40.24939 34.43085 35868 ft 397 kts 287°
2026-04-22 11:55 40.26789 34.36264 35858 ft 398 kts 287°
2026-04-22 11:55 40.28638 34.29433 35860 ft 399 kts 287°
2026-04-22 11:56 40.30487 34.22579 35861 ft 399 kts 287°
2026-04-22 11:56 40.32334 34.15714 35845 ft 400 kts 287°
2026-04-22 11:57 40.34180 34.08838 35843 ft 400 kts 287°
2026-04-22 11:57 40.36020 34.01962 35851 ft 399 kts 286°
2026-04-22 11:58 40.37853 33.95094 35863 ft 399 kts 286°
2026-04-22 11:58 40.39681 33.88222 35847 ft 399 kts 286°
2026-04-22 11:59 40.41504 33.81354 35857 ft 398 kts 286°
2026-04-22 11:59 40.43321 33.74492 35849 ft 398 kts 286°
2026-04-22 12:00 40.44993 33.67587 35859 ft 395 kts 282°
2026-04-22 12:00 40.46290 33.60585 35858 ft 394 kts 281°
2026-04-22 12:01 40.47542 33.53580 35857 ft 394 kts 281°
2026-04-22 12:01 40.48806 33.46595 35869 ft 392 kts 281°
2026-04-22 12:02 40.50069 33.39674 35874 ft 392 kts 281°
2026-04-22 12:02 40.51341 33.32705 35858 ft 392 kts 281°
2026-04-22 12:03 40.52608 33.25744 35878 ft 392 kts 281°
2026-04-22 12:03 40.53871 33.18779 35879 ft 392 kts 281°
2026-04-22 12:04 40.55129 33.11812 35872 ft 391 kts 281°
2026-04-22 12:04 40.56383 33.04850 35876 ft 391 kts 281°
2026-04-22 12:05 40.57630 32.97893 35883 ft 391 kts 281°
2026-04-22 12:05 40.58872 32.90940 35895 ft 391 kts 281°
2026-04-22 12:06 40.60111 32.83977 35884 ft 391 kts 281°
2026-04-22 12:06 40.61347 32.77004 35897 ft 391 kts 281°
2026-04-22 12:07 40.62581 32.70017 35886 ft 392 kts 281°
2026-04-22 12:07 40.63812 32.63024 35889 ft 392 kts 281°
2026-04-22 12:08 40.65039 32.56027 35901 ft 392 kts 281°
2026-04-22 12:08 40.66261 32.49024 35891 ft 393 kts 281°
2026-04-22 12:09 40.67480 32.42020 35900 ft 392 kts 281°
2026-04-22 12:09 40.68694 32.35015 35899 ft 392 kts 281°
2026-04-22 12:10 40.69904 32.28007 35904 ft 392 kts 281°
2026-04-22 12:10 40.71110 32.20996 35914 ft 392 kts 281°
2026-04-22 12:11 40.72648 32.14094 35925 ft 393 kts 285°
2026-04-22 12:11 40.74388 32.07263 35923 ft 393 kts 285°
2026-04-22 12:12 40.76119 32.00430 35928 ft 392 kts 285°
2026-04-22 12:12 40.77828 31.93602 35941 ft 392 kts 285°
2026-04-22 12:13 40.79525 31.86775 35950 ft 391 kts 285°
2026-04-22 12:13 40.81215 31.79953 35956 ft 390 kts 285°
2026-04-22 12:14 40.82895 31.73149 35960 ft 389 kts 285°
2026-04-22 12:14 40.84565 31.66366 35969 ft 388 kts 285°
2026-04-22 12:15 40.86226 31.59600 35977 ft 387 kts 285°
2026-04-22 12:15 40.87881 31.52838 35984 ft 386 kts 284°
2026-04-22 12:16 40.89530 31.46089 35994 ft 386 kts 284°
2026-04-22 12:16 40.91152 31.39328 36002 ft 385 kts 284°
2026-04-22 12:17 40.92668 31.32537 36009 ft 385 kts 283°
2026-04-22 12:17 40.94170 31.25746 36018 ft 385 kts 283°
2026-04-22 12:18 40.95679 31.18952 36028 ft 385 kts 283°
2026-04-22 12:18 40.97190 31.12151 36025 ft 385 kts 283°
2026-04-22 12:19 40.98687 31.05397 36034 ft 386 kts 283°
2026-04-22 12:19 41.00190 30.98570 36040 ft 387 kts 283°
2026-04-22 12:20 41.01628 30.91695 36034 ft 388 kts 282°
2026-04-22 12:20 41.03052 30.84799 36037 ft 389 kts 282°
2026-04-22 12:21 41.04483 30.77897 36033 ft 389 kts 282°
2026-04-22 12:21 41.05200 30.74431 35836 ft 392 kts 282°
2026-04-22 12:21 41.05940 30.70964 35586 ft 390 kts 285°
2026-04-22 12:22 41.06870 30.67598 35342 ft 387 kts 288°
2026-04-22 12:22 41.07907 30.64318 35105 ft 385 kts 289°
2026-04-22 12:22 41.08968 30.61066 34867 ft 384 kts 289°
2026-04-22 12:22 41.10022 30.57814 34629 ft 383 kts 289°
2026-04-22 12:23 41.11059 30.54566 34401 ft 382 kts 289°
2026-04-22 12:23 41.12081 30.51321 34166 ft 381 kts 288°
2026-04-22 12:23 41.13090 30.48080 33501 ft 380 kts 288°
2026-04-22 12:23 41.14092 30.44847 32918 ft 379 kts 288°
2026-04-22 12:24 41.15092 30.41603 32159 ft 381 kts 288°
2026-04-22 12:24 41.16097 30.38334 31419 ft 384 kts 288°
2026-04-22 12:24 41.17101 30.35073 30959 ft 379 kts 288°
2026-04-22 12:24 41.18089 30.31860 30548 ft 374 kts 288°
2026-04-22 12:25 41.19067 30.28680 30108 ft 370 kts 288°
2026-04-22 12:25 41.20030 30.25540 29643 ft 365 kts 288°
2026-04-22 12:25 41.20979 30.22444 29218 ft 359 kts 288°
2026-04-22 12:25 41.21857 30.19378 28789 ft 351 kts 282°
2026-04-22 12:26 41.22253 30.16237 28462 ft 341 kts 274°
2026-04-22 12:26 41.22486 30.13119 28017 ft 338 kts 273°
2026-04-22 12:26 41.22715 30.10029 27564 ft 335 kts 273°
2026-04-22 12:26 41.22952 30.06956 27134 ft 333 kts 274°
2026-04-22 12:27 41.23197 30.03899 26690 ft 332 kts 274°
2026-04-22 12:27 41.23444 30.00858 26261 ft 331 kts 274°
2026-04-22 12:27 41.23691 29.97827 25811 ft 329 kts 274°
2026-04-22 12:27 41.23756 29.94819 25372 ft 324 kts 261°
2026-04-22 12:28 41.23199 29.91935 24987 ft 321 kts 251°
2026-04-22 12:28 41.22206 29.89290 24630 ft 322 kts 239°
2026-04-22 12:28 41.20752 29.86958 24310 ft 335 kts 232°
2026-04-22 12:28 41.19114 29.84688 23905 ft 345 kts 230°
2026-04-22 12:29 41.17422 29.82401 23512 ft 348 kts 230°
2026-04-22 12:29 41.15741 29.80100 23047 ft 346 kts 230°
2026-04-22 12:29 41.14089 29.77809 22664 ft 341 kts 230°
2026-04-22 12:29 41.12673 29.75837 22337 ft 338 kts 231°
2026-04-22 12:30 41.09465 29.71364 21593 ft 332 kts 231°
2026-04-22 12:30 41.07876 29.69151 21228 ft 331 kts 231°
2026-04-22 12:30 41.06290 29.66945 20868 ft 330 kts 231°
2026-04-22 12:31 41.04707 29.64742 20492 ft 330 kts 231°
2026-04-22 12:31 41.03124 29.62542 20156 ft 330 kts 231°
2026-04-22 12:31 41.01538 29.60337 19787 ft 331 kts 231°
2026-04-22 12:31 40.99955 29.58141 19446 ft 329 kts 231°
2026-04-22 12:32 40.98379 29.55958 19080 ft 326 kts 231°
2026-04-22 12:32 40.94967 29.52102 18384 ft 333 kts 212°
2026-04-22 12:32 40.92742 29.51124 17954 ft 345 kts 195°
2026-04-22 12:33 40.90319 29.50943 17558 ft 351 kts 187°
2026-04-22 12:33 40.87877 29.50979 17139 ft 350 kts 186°
2026-04-22 12:33 40.85447 29.51051 16730 ft 348 kts 186°
2026-04-22 12:33 40.83044 29.51110 16382 ft 343 kts 186°
2026-04-22 12:34 40.80669 29.51147 15989 ft 339 kts 187°
2026-04-22 12:34 40.78317 29.51168 15618 ft 336 kts 187°
2026-04-22 12:34 40.75993 29.51184 15245 ft 333 kts 187°
2026-04-22 12:34 40.74433 29.51193 15004 ft 330 kts 187°
2026-04-22 12:35 40.71419 29.51214 14593 ft 324 kts 187°
2026-04-22 12:35 40.69905 29.51225 14382 ft 321 kts 187°
2026-04-22 12:35 40.67682 29.51240 14075 ft 317 kts 187°
2026-04-22 12:35 40.65489 29.51254 13766 ft 314 kts 187°
2026-04-22 12:36 40.63325 29.51209 13489 ft 303 kts 195°
2026-04-22 12:36 40.61466 29.50353 13406 ft 277 kts 218°
2026-04-22 12:36 40.60017 29.48797 13220 ft 265 kts 229°
2026-04-22 12:36 40.58736 29.47066 12939 ft 263 kts 231°
2026-04-22 12:37 40.57486 29.45306 12574 ft 265 kts 231°
2026-04-22 12:37 40.56230 29.43535 12293 ft 264 kts 231°
2026-04-22 12:37 40.54976 29.41779 12027 ft 262 kts 231°
2026-04-22 12:37 40.53723 29.40034 11753 ft 262 kts 231°
2026-04-22 12:38 40.52471 29.38298 11486 ft 261 kts 230°
2026-04-22 12:38 40.51221 29.36570 11202 ft 260 kts 230°
2026-04-22 12:38 40.49982 29.34861 10898 ft 257 kts 230°
2026-04-22 12:38 40.48749 29.33164 10539 ft 257 kts 230°
2026-04-22 12:39 40.47520 29.31473 10254 ft 255 kts 230°
2026-04-22 12:39 40.46101 29.27647 10080 ft 231 kts 269°
2026-04-22 12:39 40.46363 29.25583 9841 ft 231 kts 285°
2026-04-22 12:40 40.47108 29.23679 9474 ft 239 kts 300°
2026-04-22 12:40 40.48323 29.22135 9173 ft 249 kts 321°
2026-04-22 12:40 40.49823 29.21013 8993 ft 249 kts 324°
2026-04-22 12:40 40.51370 29.19913 8623 ft 255 kts 327°
2026-04-22 12:41 40.52937 29.18853 8372 ft 251 kts 326°
2026-04-22 12:41 40.54462 29.17757 8166 ft 248 kts 326°
2026-04-22 12:41 40.55971 29.16665 7874 ft 248 kts 326°
2026-04-22 12:41 40.57482 29.15574 7655 ft 246 kts 327°
2026-04-22 12:42 40.58969 29.14505 7375 ft 245 kts 327°
2026-04-22 12:42 40.60471 29.13424 7092 ft 245 kts 327°
2026-04-22 12:42 40.61953 29.12358 6813 ft 242 kts 328°
2026-04-22 12:42 40.63407 29.11310 6467 ft 241 kts 329°
2026-04-22 12:43 40.64878 29.10250 6084 ft 241 kts 330°
2026-04-22 12:43 40.66346 29.09193 5734 ft 240 kts 331°
2026-04-22 12:43 40.67805 29.08142 5376 ft 239 kts 332°
2026-04-22 12:43 40.69266 29.07090 5033 ft 238 kts 333°
2026-04-22 12:44 40.70681 29.06068 4959 ft 226 kts 333°
2026-04-22 12:44 40.72035 29.05089 4777 ft 219 kts 334°
2026-04-22 12:44 40.73372 29.04126 4536 ft 218 kts 334°
2026-04-22 12:44 40.74607 29.03235 4329 ft 217 kts 334°
2026-04-22 12:45 40.76021 29.02571 4080 ft 211 kts
2026-04-22 12:45 40.77415 29.03079 4071 ft 212 kts 32°
2026-04-22 12:45 40.78483 29.04442 3898 ft 215 kts 53°
2026-04-22 12:45 40.79291 29.06054 3728 ft 206 kts 57°
2026-04-22 12:46 40.80030 29.07611 3591 ft 196 kts 57°
2026-04-22 12:46 40.80712 29.09141 3424 ft 192 kts 62°
2026-04-22 12:46 40.81295 29.10711 3237 ft 189 kts 63°
2026-04-22 12:46 40.81856 29.12251 3057 ft 182 kts 63°
2026-04-22 12:47 40.82398 29.13681 3015 ft 168 kts 62°
2026-04-22 12:47 40.82923 29.15068 2905 ft 170 kts 63°
2026-04-22 12:47 40.83443 29.16475 2668 ft 169 kts 63°
2026-04-22 12:47 40.83949 29.17859 2440 ft 165 kts 63°
2026-04-22 12:48 40.84436 29.19194 2218 ft 156 kts 63°
2026-04-22 12:48 40.84888 29.20430 2013 ft 144 kts 63°
2026-04-22 12:48 40.85319 29.21610 1846 ft 142 kts 63°
2026-04-22 12:48 40.85744 29.22772 1633 ft 139 kts 63°
2026-04-22 12:49 40.86160 29.23909 1439 ft 134 kts 63°
2026-04-22 12:49 40.86563 29.25011 1252 ft 134 kts 62°
2026-04-22 12:49 40.86982 29.26152 1060 ft 143 kts 63°
2026-04-22 12:49 40.87419 29.27354 831 ft 144 kts 62°
2026-04-22 12:50 40.87847 29.28522 644 ft 142 kts 62°
2026-04-22 12:50 40.88267 29.29682 450 ft 142 kts 60°
2026-04-22 12:50 40.88697 29.30841 298 ft 136 kts 62°
2026-04-22 12:50 40.89058 29.31805 307 ft 88 kts 66°
2026-04-22 12:51 40.89250 29.32289 302 ft 32 kts 47°
2026-04-22 12:51 40.89408 29.32466 306 ft 23 kts 35°
2026-04-22 12:51 40.89493 29.32488 307 ft 13 kts 310°
2026-04-22 12:51 40.89496 29.32398 309 ft 9 kts 273°
2026-04-22 12:52 40.89547 29.32352 306 ft 9 kts 339°
2026-04-22 12:52 40.89608 29.32330 307 ft 9 kts 346°
2026-04-22 12:52 40.89665 29.32302 305 ft 9 kts 332°
2026-04-22 12:52 40.89719 29.32266 307 ft 9 kts 334°
2026-04-22 12:53 40.89786 29.32223 310 ft 12 kts 334°
2026-04-22 12:53 40.89869 29.32169 311 ft 14 kts 334°
2026-04-22 12:53 40.89957 29.32112 313 ft 14 kts 334°
2026-04-22 12:53 40.90041 29.32058 319 ft 13 kts 334°
2026-04-22 12:54 40.90110 29.32108 320 ft 13 kts 64°
2026-04-22 12:54 40.90148 29.32212 319 ft 12 kts 63°
2026-04-22 12:54 40.90174 29.32281 320 ft 0 kts 63°
2026-04-22 12:55 40.90174 29.32282 320 ft 1 kts 63°
2026-04-22 12:55 40.90185 29.32311 320 ft 7 kts 63°
2026-04-22 12:56 40.90214 29.32390 319 ft 12 kts 65°
2026-04-22 12:56 40.90253 29.32500 319 ft 13 kts 65°
2026-04-22 12:56 40.90310 29.32586 319 ft 13 kts
2026-04-22 12:56 40.90389 29.32543 319 ft 13 kts 335°
2026-04-22 12:57 40.90480 29.32486 319 ft 16 kts 334°
2026-04-22 12:57 40.90574 29.32411 320 ft 16 kts 307°
2026-04-22 12:57 40.90563 29.32273 320 ft 16 kts 242°
2026-04-22 12:57 40.90516 29.32146 320 ft 15 kts 244°
2026-04-22 12:58 40.90486 29.32020 320 ft 14 kts 287°
2026-04-22 12:58 40.90567 29.31949 320 ft 14 kts 334°
2026-04-22 12:58 40.90613 29.31882 320 ft 8 kts 251°
2026-04-22 12:58 40.90589 29.31816 320 ft 8 kts 243°
2026-04-22 12:59 40.90567 29.31758 320 ft 5 kts 245°
2026-04-22 12:59 40.90556 29.31727 318 ft 3 kts 244°
2026-04-22 12:59 40.90547 29.31701 320 ft 2 kts 244°